Location: Banksville Park
(38.5557°N, 75.1182°W)
Time: 05:10:40
(UTC+00:00)

Cosmos 2195 Rocket - Pass Details

Date: 19 September 2020
Orbit: 948 x 994 km, 82.9° (Epoch: 20 October)

Event Time Altitude Azimuth Distance (km) Brightness Sun altitude
Rises 01:08:16 0° 357° (N) 3,691 7.9 -24.6°
Reaches altitude 10° 01:10:51 10° 1° (N) 2,733 7.1 -25.1°
Enters shadow 01:16:53 58° 75° (ENE) 1,119 4.5 -26.2°
